This is the latest recevied weather packets stored in our database for station/object KE2A-13. If no packets are shown the sender has not sent any weather packets the latest 10 day(s).
| Time | Temp. | Humidity | Pressure | Rain* | Wind** | Luminosity | Snow |
|---|---|---|---|---|---|---|---|
| 1777766400 | 11.67° C | 45% | 1010.8 hPa | 1.27 mm | - | - | - |
| 1777765500 | 12.22° C | 44% | 1010.7 hPa | 1.27 mm | - | - | - |
| 1777764600 | 13.33° C | 42% | 1010.5 hPa | 1.27 mm | - | - | - |
| 1777763700 | 13.33° C | 43% | 1010.3 hPa | 1.27 mm | - | - | - |
| 1777762800 | 13.33° C | 42% | 1010.2 hPa | 1.27 mm | - | - | - |
| 1777761900 | 13.33° C | 43% | 1010.1 hPa | 1.27 mm | - | - | - |
| 1777761000 | 13.89° C | 43% | 1010.1 hPa | 1.27 mm | - | - | - |
| 1777760100 | 14.44° C | 41% | 1010.1 hPa | 1.27 mm | - | - | - |
| 1777759200 | 15° C | 39% | 1009.9 hPa | 1.27 mm | - | - | - |
| 1777758300 | 15° C | 41% | 1009.9 hPa | 1.27 mm | - | - | - |
| 1777757400 | 15° C | 42% | 1009.9 hPa | 1.27 mm | - | - | - |
| 1777756500 | 15° C | 40% | 1009.7 hPa | 1.27 mm | - | - | - |
| 1777755600 | 15.56° C | 43% | 1009.6 hPa | 1.27 mm | - | - | - |
| 1777754700 | 15.56° C | 43% | 1009.7 hPa | 1.27 mm | - | - | - |
| 1777753800 | 15° C | 43% | 1009.8 hPa | 1.27 mm | - | - | - |
| 1777752900 | 15° C | 42% | 1010 hPa | 1.27 mm | - | - | - |
| 1777752000 | 15° C | 40% | 1010.1 hPa | 1.27 mm | - | - | - |
| 1777751100 | 15.56° C | 46% | 1010.2 hPa | 1.27 mm | - | - | - |
| 1777750200 | 15.56° C | 48% | 1010.5 hPa | 1.27 mm | - | - | - |
| 1777749300 | 16.11° C | 42% | 1010.6 hPa | 1.27 mm | - | - | - |
| 1777748400 | 16.11° C | 43% | 1010.7 hPa | 1.27 mm | - | - | - |
| 1777747501 | 15° C | 46% | 1010.9 hPa | 1.27 mm | - | - | - |
| 1777746600 | 15° C | 48% | 1011 hPa | 1.27 mm | - | - | - |
| 1777745700 | 15° C | 50% | 1011.1 hPa | 1.27 mm | - | - | - |
| 1777744800 | 14.44° C | 53% | 1011 hPa | 1.27 mm | - | - | - |
* Rain since midnight (hover to see other rain measurements)
** Current wind speed in m/s (hover to see current wind gust speed)